NOZ105 ENEV-ENBR

Flight info

Callsign NOZ105
Flight time 1h 36m
Altitude 36000
Route GEPTU DCT LUNUR
Aircraft B738/M-SDE2E3GHIJ1LRWXY/LB1

Departure

Time 2026-05-05 23:50
Airport Harstad/Narvik Airport (ENEV)

Arrival

Time 2026-05-06 01:27
Airport Bergen Airport, Flesland (ENBR)
Time Latitude Longitude Altitude Speed Heading
2026-05-05 23:26 68.49044 16.68357 90 ft 0 kts 88°
2026-05-05 23:40 68.49044 16.68339 92 ft 2 kts 88°
2026-05-05 23:40 68.49043 16.68294 89 ft 2 kts 88°
2026-05-05 23:40 68.49043 16.68284 88 ft 0 kts 88°
2026-05-05 23:44 68.49044 16.68288 88 ft 1 kts 65°
2026-05-05 23:44 68.49052 16.68283 91 ft 3 kts 342°
2026-05-05 23:45 68.49111 16.68210 88 ft 15 kts 336°
2026-05-05 23:45 68.49219 16.68174 87 ft 16 kts 358°
2026-05-05 23:45 68.49329 16.68165 83 ft 17 kts 358°
2026-05-05 23:45 68.49447 16.68147 80 ft 17 kts 357°
2026-05-05 23:46 68.49571 16.68134 66 ft 18 kts 358°
2026-05-05 23:46 68.49698 16.68120 66 ft 18 kts 358°
2026-05-05 23:46 68.49819 16.68106 70 ft 17 kts 358°
2026-05-05 23:46 68.49929 16.68094 63 ft 15 kts 358°
2026-05-05 23:47 68.50029 16.68083 66 ft 13 kts 358°
2026-05-05 23:47 68.50111 16.68075 66 ft 10 kts 358°
2026-05-05 23:47 68.50175 16.68067 71 ft 10 kts 358°
2026-05-05 23:47 68.50269 16.68057 84 ft 17 kts 357°
2026-05-05 23:48 68.50370 16.67964 88 ft 9 kts 303°
2026-05-05 23:48 68.50379 16.67906 90 ft 0 kts 288°
2026-05-05 23:48 68.50379 16.67905 90 ft 1 kts 288°
2026-05-05 23:48 68.50382 16.67778 91 ft 9 kts 267°
2026-05-05 23:49 68.50341 16.67683 92 ft 8 kts 183°
2026-05-05 23:49 68.50288 16.67688 92 ft 14 kts 177°
2026-05-05 23:49 68.49945 16.67726 87 ft 87 kts 178°
2026-05-05 23:49 68.49120 16.67819 96 ft 148 kts 178°
2026-05-05 23:50 68.47965 16.67957 485 ft 167 kts 177°
2026-05-05 23:50 68.46808 16.68182 1327 ft 173 kts 175°
2026-05-05 23:50 68.45624 16.68408 2271 ft 170 kts 178°
2026-05-05 23:50 68.44392 16.68513 2864 ft 189 kts 184°
2026-05-05 23:51 68.43113 16.67121 3136 ft 214 kts 225°
2026-05-05 23:51 68.42471 16.63445 3435 ft 231 kts 268°
2026-05-05 23:51 68.42888 16.59243 4006 ft 238 kts 297°
2026-05-05 23:51 68.43301 16.54720 4363 ft 259 kts 264°
2026-05-05 23:52 68.42666 16.50102 5175 ft 264 kts 242°
2026-05-05 23:52 68.41863 16.45601 6120 ft 267 kts 247°
2026-05-05 23:52 68.41166 16.40871 6720 ft 271 kts 250°
2026-05-05 23:52 68.40511 16.36040 7466 ft 275 kts 247°
2026-05-05 23:53 68.39429 16.31798 8384 ft 276 kts 224°
2026-05-05 23:53 68.37982 16.28343 9287 ft 279 kts 221°
2026-05-05 23:53 68.36497 16.24883 10069 ft 285 kts 221°
2026-05-05 23:53 68.34935 16.21217 10331 ft 310 kts 221°
2026-05-05 23:54 68.33251 16.17242 10634 ft 330 kts 221°
2026-05-05 23:54 68.31504 16.13113 11313 ft 337 kts 221°
2026-05-05 23:54 68.29720 16.08972 12153 ft 339 kts 219°
2026-05-05 23:54 68.27853 16.05047 13009 ft 342 kts 217°
2026-05-05 23:55 68.25940 16.01194 13775 ft 346 kts 217°
2026-05-05 23:55 68.23997 15.97303 14489 ft 349 kts 217°
2026-05-05 23:55 68.22041 15.93374 15222 ft 352 kts 217°
2026-05-05 23:55 68.20070 15.89395 15944 ft 356 kts 217°
2026-05-05 23:56 68.18083 15.85373 16649 ft 360 kts 217°
2026-05-05 23:56 68.16076 15.81309 17363 ft 363 kts 217°
2026-05-05 23:56 68.14048 15.77211 18062 ft 367 kts 217°
2026-05-05 23:56 68.11998 15.73082 18654 ft 371 kts 217°
2026-05-05 23:57 68.09791 15.69455 19234 ft 375 kts 206°
2026-05-05 23:57 68.07386 15.66653 19842 ft 378 kts 203°
2026-05-05 23:57 68.04941 15.63989 20427 ft 382 kts 202°
2026-05-05 23:57 68.02465 15.61304 21011 ft 385 kts 202°
2026-05-05 23:58 67.99975 15.58565 21591 ft 389 kts 203°
2026-05-05 23:58 67.97469 15.55767 22148 ft 392 kts 203°
2026-05-05 23:58 67.94977 15.52959 22700 ft 396 kts 203°
2026-05-05 23:58 67.92433 15.50081 23245 ft 399 kts 203°
2026-05-05 23:59 67.89866 15.47176 23687 ft 403 kts 203°
2026-05-05 23:59 67.87277 15.44251 24119 ft 406 kts 203°
2026-05-05 23:59 67.84667 15.41308 24544 ft 409 kts 203°
2026-05-05 23:59 67.82039 15.38357 24958 ft 412 kts 203°
2026-05-06 00:00 67.79392 15.35349 25372 ft 415 kts 206°
2026-05-06 00:00 67.76889 15.31514 25761 ft 418 kts 213°
2026-05-06 00:00 67.74469 15.27201 26159 ft 421 kts 215°
2026-05-06 00:00 67.72062 15.22748 26535 ft 424 kts 216°
2026-05-06 00:01 67.69645 15.18260 26908 ft 427 kts 215°
2026-05-06 00:01 67.67203 15.13765 27287 ft 430 kts 215°
2026-05-06 00:01 67.64735 15.09280 27651 ft 433 kts 215°
2026-05-06 00:01 67.62240 15.04799 27991 ft 436 kts 214°
2026-05-06 00:02 67.59723 15.00317 28338 ft 439 kts 214°
2026-05-06 00:02 67.57182 14.95824 28671 ft 441 kts 214°
2026-05-06 00:02 67.54643 14.91357 29011 ft 444 kts 214°
2026-05-06 00:02 67.52064 14.86833 29320 ft 447 kts 214°
2026-05-06 00:03 67.49471 14.82299 29647 ft 449 kts 214°
2026-05-06 00:03 67.46872 14.77766 30027 ft 449 kts 214°
2026-05-06 00:03 67.44281 14.73258 30412 ft 447 kts 214°
2026-05-06 00:03 67.41690 14.68763 30743 ft 448 kts 214°
2026-05-06 00:04 67.39097 14.64274 31040 ft 448 kts 214°
2026-05-06 00:04 67.36498 14.59787 31344 ft 449 kts 214°
2026-05-06 00:04 67.33900 14.55312 31697 ft 448 kts 214°
2026-05-06 00:04 67.31298 14.50843 32017 ft 448 kts 214°
2026-05-06 00:05 67.26087 14.41928 32633 ft 449 kts 214°
2026-05-06 00:05 67.23481 14.37487 32946 ft 449 kts 214°
2026-05-06 00:05 67.20874 14.33057 33243 ft 449 kts 214°
2026-05-06 00:06 67.18264 14.28633 33524 ft 449 kts 214°
2026-05-06 00:06 67.15648 14.24209 33794 ft 449 kts 214°
2026-05-06 00:06 67.13036 14.19806 34047 ft 449 kts 214°
2026-05-06 00:06 67.10460 14.15474 34299 ft 449 kts 214°
2026-05-06 00:07 67.07846 14.11089 34536 ft 449 kts 214°
2026-05-06 00:07 67.05233 14.06717 34751 ft 449 kts 214°
2026-05-06 00:07 67.02620 14.02358 35004 ft 448 kts 214°
2026-05-06 00:07 67.00008 13.98010 35224 ft 448 kts 214°
2026-05-06 00:08 66.97392 13.93669 35436 ft 448 kts 214°
2026-05-06 00:08 66.94776 13.89337 35657 ft 448 kts 214°
2026-05-06 00:08 66.92151 13.85002 35700 ft 451 kts 214°
2026-05-06 00:09 66.86878 13.76328 35701 ft 450 kts 214°
2026-05-06 00:09 66.81651 13.67776 35707 ft 445 kts 214°
2026-05-06 00:10 66.76449 13.59309 35707 ft 443 kts 214°
2026-05-06 00:10 66.71266 13.50914 35702 ft 442 kts 214°
2026-05-06 00:11 66.66089 13.42570 35708 ft 442 kts 214°
2026-05-06 00:11 66.60905 13.34256 35711 ft 442 kts 213°
2026-05-06 00:12 66.55702 13.25954 35712 ft 444 kts 213°
2026-05-06 00:12 66.50473 13.17654 35719 ft 445 kts 213°
2026-05-06 00:13 66.45231 13.09374 35715 ft 447 kts 213°
2026-05-06 00:13 66.39954 13.01081 35728 ft 448 kts 213°
2026-05-06 00:14 66.35023 12.93370 35707 ft 449 kts 213°
2026-05-06 00:14 66.29714 12.85110 35725 ft 450 kts 213°
2026-05-06 00:15 66.24441 12.76945 35733 ft 450 kts 213°
2026-05-06 00:15 66.19131 12.68763 35736 ft 449 kts 213°
2026-05-06 00:16 66.13821 12.60624 35742 ft 448 kts 213°
2026-05-06 00:16 66.08520 12.52539 35748 ft 447 kts 213°
2026-05-06 00:17 66.03232 12.44513 35745 ft 446 kts 213°
2026-05-06 00:17 65.97950 12.36535 35746 ft 445 kts 213°
2026-05-06 00:18 65.92678 12.28611 35745 ft 444 kts 213°
2026-05-06 00:18 65.87405 12.20726 35748 ft 443 kts 213°
2026-05-06 00:19 65.82143 12.12894 35753 ft 443 kts 213°
2026-05-06 00:19 65.76883 12.05102 35759 ft 442 kts 213°
2026-05-06 00:20 65.71655 11.97396 35771 ft 442 kts 213°
2026-05-06 00:20 65.66353 11.89618 35777 ft 442 kts 213°
2026-05-06 00:21 65.61116 11.81973 35777 ft 443 kts 212°
2026-05-06 00:21 65.55801 11.74251 35779 ft 443 kts 212°
2026-05-06 00:22 65.50544 11.66649 35781 ft 444 kts 212°
2026-05-06 00:22 65.45240 11.59016 35789 ft 444 kts 212°
2026-05-06 00:23 65.39936 11.51419 35792 ft 444 kts 213°
2026-05-06 00:23 65.34623 11.43846 35797 ft 444 kts 213°
2026-05-06 00:24 65.29308 11.36306 35797 ft 444 kts 212°
2026-05-06 00:24 65.23993 11.28804 35809 ft 443 kts 212°
2026-05-06 00:25 65.18685 11.21344 35809 ft 443 kts 212°
2026-05-06 00:25 65.13383 11.13928 35819 ft 442 kts 212°
2026-05-06 00:26 65.08981 11.07795 35822 ft 441 kts 212°
2026-05-06 00:26 65.03681 11.00446 35825 ft 441 kts 212°
2026-05-06 00:27 64.98392 10.93145 35830 ft 440 kts 212°
2026-05-06 00:27 64.93097 10.85869 35828 ft 440 kts 212°
2026-05-06 00:28 64.87799 10.78624 35831 ft 440 kts 212°
2026-05-06 00:28 64.82504 10.71415 35835 ft 440 kts 212°
2026-05-06 00:29 64.77197 10.64223 35838 ft 440 kts 212°
2026-05-06 00:29 64.71886 10.57058 35846 ft 440 kts 212°
2026-05-06 00:30 64.66574 10.49925 35854 ft 441 kts 212°
2026-05-06 00:30 64.61253 10.42813 35859 ft 441 kts 212°
2026-05-06 00:31 64.55929 10.35729 35865 ft 441 kts 212°
2026-05-06 00:31 64.50603 10.28674 35870 ft 441 kts 212°
2026-05-06 00:32 64.45272 10.21645 35873 ft 441 kts 212°
2026-05-06 00:32 64.39937 10.14642 35880 ft 441 kts 212°
2026-05-06 00:33 64.34634 10.07712 35882 ft 441 kts 212°
2026-05-06 00:33 64.29302 10.00776 35878 ft 440 kts 212°
2026-05-06 00:34 64.23963 9.93861 35885 ft 440 kts 212°
2026-05-06 00:34 64.18629 9.86985 35890 ft 439 kts 212°
2026-05-06 00:35 64.13298 9.80141 35890 ft 439 kts 212°
2026-05-06 00:35 64.07972 9.73336 35896 ft 438 kts 212°
2026-05-06 00:36 64.02645 9.66558 35902 ft 438 kts 212°
2026-05-06 00:36 63.97323 9.59817 35904 ft 437 kts 212°
2026-05-06 00:37 63.92005 9.53110 35908 ft 437 kts 211°
2026-05-06 00:37 63.86687 9.46433 35909 ft 436 kts 211°
2026-05-06 00:38 63.81373 9.39789 35912 ft 436 kts 211°
2026-05-06 00:38 63.76058 9.33174 35909 ft 436 kts 211°
2026-05-06 00:39 63.70746 9.26590 35914 ft 436 kts 211°
2026-05-06 00:39 63.65435 9.20036 35913 ft 435 kts 211°
2026-05-06 00:40 63.60115 9.13499 35916 ft 435 kts 211°
2026-05-06 00:40 63.54802 9.06998 35924 ft 435 kts 211°
2026-05-06 00:41 63.49477 9.00511 35927 ft 435 kts 211°
2026-05-06 00:41 63.44192 8.94100 35939 ft 435 kts 211°
2026-05-06 00:42 63.38866 8.87666 35936 ft 435 kts 211°
2026-05-06 00:42 63.33540 8.81260 35928 ft 435 kts 211°
2026-05-06 00:43 63.28206 8.74872 35928 ft 435 kts 211°
2026-05-06 00:43 63.22877 8.68517 35936 ft 435 kts 211°
2026-05-06 00:44 63.17546 8.62186 35948 ft 434 kts 211°
2026-05-06 00:44 63.12220 8.55887 35946 ft 434 kts 211°
2026-05-06 00:45 63.06891 8.49610 35938 ft 434 kts 211°
2026-05-06 00:45 63.01570 8.43370 35941 ft 434 kts 211°
2026-05-06 00:46 62.96241 8.37147 35943 ft 433 kts 211°
2026-05-06 00:46 62.90929 8.30969 35943 ft 432 kts 211°
2026-05-06 00:47 62.85614 8.24812 35954 ft 431 kts 211°
2026-05-06 00:47 62.80312 8.18697 35946 ft 431 kts 211°
2026-05-06 00:48 62.75011 8.12606 35946 ft 430 kts 211°
2026-05-06 00:48 62.69747 8.06584 35939 ft 430 kts 211°
2026-05-06 00:49 62.64452 8.00551 35936 ft 429 kts 211°
2026-05-06 00:49 62.59167 7.94553 35947 ft 428 kts 211°
2026-05-06 00:50 62.53892 7.88590 35948 ft 428 kts 211°
2026-05-06 00:50 62.48613 7.82647 35944 ft 427 kts 211°
2026-05-06 00:51 62.43339 7.76733 35940 ft 427 kts 211°
2026-05-06 00:51 62.38067 7.70845 35942 ft 427 kts 211°
2026-05-06 00:52 62.32795 7.64980 35937 ft 427 kts 211°
2026-05-06 00:52 62.27521 7.59138 35947 ft 427 kts 211°
2026-05-06 00:53 62.22246 7.53315 35963 ft 426 kts 211°
2026-05-06 00:53 62.16972 7.47518 35941 ft 426 kts 211°
2026-05-06 00:54 62.11691 7.41737 35951 ft 426 kts 211°
2026-05-06 00:54 62.06419 7.35987 35971 ft 425 kts 211°
2026-05-06 00:55 62.01193 7.30312 35971 ft 422 kts 211°
2026-05-06 00:55 61.95966 7.24661 35985 ft 416 kts 211°
2026-05-06 00:56 61.90805 7.19094 35690 ft 418 kts 211°
2026-05-06 00:56 61.88235 7.16332 35384 ft 411 kts 211°
2026-05-06 00:56 61.85725 7.13642 35032 ft 408 kts 211°
2026-05-06 00:56 61.83219 7.10962 34779 ft 399 kts 212°
2026-05-06 00:57 61.80736 7.08314 34553 ft 391 kts 212°
2026-05-06 00:57 61.78318 7.05737 34212 ft 387 kts 212°
2026-05-06 00:57 61.75948 7.03213 34023 ft 380 kts 211°
2026-05-06 00:57 61.73599 7.00715 33667 ft 375 kts 212°
2026-05-06 00:58 61.71282 6.98255 33243 ft 372 kts 212°
2026-05-06 00:58 61.68982 6.95816 32885 ft 368 kts 212°
2026-05-06 00:58 61.66702 6.93401 32497 ft 366 kts 213°
2026-05-06 00:58 61.64441 6.91012 32118 ft 363 kts 213°
2026-05-06 00:59 61.62191 6.88639 31744 ft 360 kts 213°
2026-05-06 00:59 61.59963 6.86292 31380 ft 357 kts 213°
2026-05-06 00:59 61.57777 6.83995 31016 ft 354 kts 213°
2026-05-06 00:59 61.55586 6.81697 30657 ft 351 kts 213°
2026-05-06 01:00 61.53410 6.79418 30309 ft 348 kts 214°
2026-05-06 01:00 61.51256 6.77164 29950 ft 345 kts 214°
2026-05-06 01:00 61.49117 6.74929 29509 ft 342 kts 214°
2026-05-06 01:00 61.47000 6.72722 29138 ft 337 kts 214°
2026-05-06 01:01 61.44916 6.70555 28787 ft 332 kts 214°
2026-05-06 01:01 61.42862 6.68421 28375 ft 328 kts 214°
2026-05-06 01:01 61.40831 6.66312 28008 ft 325 kts 214°
2026-05-06 01:01 61.38828 6.64237 27702 ft 319 kts 214°
2026-05-06 01:02 61.36843 6.62180 27287 ft 318 kts 214°
2026-05-06 01:02 61.34876 6.60146 26960 ft 313 kts 214°
2026-05-06 01:02 61.32931 6.58138 26622 ft 312 kts 214°
2026-05-06 01:02 61.30986 6.56128 26212 ft 311 kts 214°
2026-05-06 01:03 61.29058 6.54141 25874 ft 307 kts 214°
2026-05-06 01:03 61.27157 6.52188 25552 ft 303 kts 215°
2026-05-06 01:03 61.25274 6.50258 25210 ft 300 kts 215°
2026-05-06 01:03 61.23406 6.48342 24871 ft 299 kts 215°
2026-05-06 01:04 61.21552 6.46441 24516 ft 296 kts 215°
2026-05-06 01:04 61.19716 6.44564 24203 ft 293 kts 215°
2026-05-06 01:04 61.17892 6.42700 23884 ft 291 kts 215°
2026-05-06 01:04 61.16075 6.40846 23554 ft 291 kts 215°
2026-05-06 01:05 61.14260 6.38994 23169 ft 291 kts 215°
2026-05-06 01:05 61.12447 6.37146 22789 ft 290 kts 214°
2026-05-06 01:05 61.10644 6.35315 22464 ft 288 kts 214°
2026-05-06 01:05 61.08853 6.33498 22156 ft 284 kts 214°
2026-05-06 01:06 61.07080 6.31703 21814 ft 283 kts 214°
2026-05-06 01:06 61.05312 6.29910 21333 ft 287 kts 213°
2026-05-06 01:06 61.03492 6.28058 20608 ft 297 kts 213°
2026-05-06 01:06 61.01629 6.26170 20126 ft 300 kts 212°
2026-05-06 01:07 60.99730 6.24259 19787 ft 298 kts 212°
2026-05-06 01:07 60.97874 6.22396 19447 ft 296 kts 212°
2026-05-06 01:07 60.96025 6.20538 19061 ft 296 kts 212°
2026-05-06 01:07 60.94174 6.18679 18671 ft 296 kts 211°
2026-05-06 01:08 60.92324 6.16824 18313 ft 295 kts 211°
2026-05-06 01:08 60.90481 6.14977 17922 ft 294 kts 211°
2026-05-06 01:08 60.88645 6.13139 17542 ft 293 kts 211°
2026-05-06 01:08 60.86817 6.11314 17180 ft 291 kts 211°
2026-05-06 01:09 60.85000 6.09503 16830 ft 290 kts 210°
2026-05-06 01:09 60.83171 6.07883 16474 ft 292 kts 204°
2026-05-06 01:09 60.81210 6.06676 16024 ft 296 kts 200°
2026-05-06 01:09 60.79226 6.05598 15697 ft 294 kts 200°
2026-05-06 01:10 60.77250 6.04515 15349 ft 293 kts 200°
2026-05-06 01:10 60.75295 6.03409 15035 ft 291 kts 200°
2026-05-06 01:10 60.73350 6.02284 14722 ft 289 kts 200°
2026-05-06 01:10 60.71425 6.01167 14423 ft 287 kts 200°
2026-05-06 01:11 60.69510 6.00058 14205 ft 283 kts 200°
2026-05-06 01:11 60.67624 5.98962 13943 ft 281 kts 200°
2026-05-06 01:11 60.65760 5.97880 13696 ft 277 kts 200°
2026-05-06 01:11 60.63913 5.96809 13399 ft 275 kts 200°
2026-05-06 01:12 60.62081 5.95745 13135 ft 272 kts 200°
2026-05-06 01:12 60.60278 5.94700 12908 ft 268 kts 200°
2026-05-06 01:12 60.58487 5.93664 12667 ft 267 kts 200°
2026-05-06 01:12 60.56692 5.92625 12426 ft 269 kts 200°
2026-05-06 01:13 60.54878 5.91574 12234 ft 276 kts 199°
2026-05-06 01:13 60.53641 5.90858 12044 ft 282 kts 199°
2026-05-06 01:13 60.51748 5.89764 11803 ft 282 kts 199°
2026-05-06 01:13 60.49867 5.88685 11561 ft 279 kts 199°
2026-05-06 01:14 60.46436 5.86717 11127 ft 270 kts 199°
2026-05-06 01:14 60.44639 5.85688 10916 ft 265 kts 199°
2026-05-06 01:14 60.42881 5.84681 10716 ft 262 kts 199°
2026-05-06 01:15 60.41102 5.83660 10270 ft 268 kts 199°
2026-05-06 01:15 60.39303 5.82631 9933 ft 269 kts 199°
2026-05-06 01:15 60.37508 5.81607 9643 ft 268 kts 199°
2026-05-06 01:15 60.35715 5.80584 9337 ft 267 kts 199°
2026-05-06 01:16 60.33942 5.79575 9016 ft 263 kts 199°
2026-05-06 01:16 60.32186 5.78576 8539 ft 263 kts 198°
2026-05-06 01:16 60.30426 5.77575 8217 ft 264 kts 198°
2026-05-06 01:16 60.28661 5.76573 7918 ft 263 kts 198°
2026-05-06 01:17 60.26913 5.75584 7668 ft 259 kts 198°
2026-05-06 01:17 60.25182 5.74602 7400 ft 258 kts 198°
2026-05-06 01:17 60.23489 5.73643 7174 ft 255 kts 198°
2026-05-06 01:17 60.21785 5.72681 7077 ft 247 kts 198°
2026-05-06 01:18 60.20170 5.71771 6950 ft 240 kts 198°
2026-05-06 01:18 60.18606 5.70802 6851 ft 231 kts 208°
2026-05-06 01:18 60.17431 5.68770 6669 ft 220 kts 236°
2026-05-06 01:18 60.16617 5.66199 6442 ft 217 kts 242°
2026-05-06 01:19 60.15869 5.63560 6208 ft 217 kts 243°
2026-05-06 01:19 60.15127 5.60926 5969 ft 217 kts 242°
2026-05-06 01:19 60.14378 5.58292 5728 ft 217 kts 242°
2026-05-06 01:19 60.13629 5.55681 5489 ft 215 kts 242°
2026-05-06 01:20 60.12878 5.53081 5259 ft 216 kts 241°
2026-05-06 01:20 60.12124 5.50488 5027 ft 215 kts 241°
2026-05-06 01:20 60.11371 5.47908 4789 ft 214 kts 241°
2026-05-06 01:20 60.10620 5.45338 4561 ft 214 kts 241°
2026-05-06 01:21 60.09892 5.42781 4465 ft 211 kts 248°
2026-05-06 01:21 60.09727 5.39886 4243 ft 211 kts 281°
2026-05-06 01:21 60.10006 5.37059 4048 ft 204 kts 281°
2026-05-06 01:21 60.10266 5.34296 3782 ft 199 kts 281°
2026-05-06 01:22 60.10518 5.31604 3563 ft 194 kts 281°
2026-05-06 01:22 60.10907 5.29078 3323 ft 188 kts 307°
2026-05-06 01:22 60.11980 5.27780 3195 ft 182 kts 348°
2026-05-06 01:22 60.13227 5.27315 3004 ft 184 kts 347°
2026-05-06 01:23 60.14485 5.26827 2794 ft 182 kts 349°
2026-05-06 01:23 60.15715 5.26399 2584 ft 176 kts 349°
2026-05-06 01:23 60.16902 5.25998 2492 ft 173 kts 349°
2026-05-06 01:23 60.18087 5.25600 2308 ft 171 kts 349°
2026-05-06 01:24 60.19237 5.25213 2079 ft 163 kts 349°
2026-05-06 01:24 60.20335 5.24843 1839 ft 157 kts 349°
2026-05-06 01:24 60.21413 5.24480 1635 ft 158 kts 349°
2026-05-06 01:24 60.22499 5.24115 1414 ft 158 kts 349°
2026-05-06 01:25 60.23571 5.23754 1212 ft 152 kts 350°
2026-05-06 01:25 60.24591 5.23410 953 ft 146 kts 351°
2026-05-06 01:25 60.25598 5.23072 746 ft 148 kts 351°
2026-05-06 01:25 60.26621 5.22727 535 ft 149 kts 351°
2026-05-06 01:26 60.27633 5.22393 354 ft 145 kts 351°
2026-05-06 01:26 60.28616 5.22049 167 ft 140 kts 352°
2026-05-06 01:26 60.29322 5.21826 155 ft 123 kts 349°
2026-05-06 01:26 60.29987 5.21602 160 ft 67 kts 351°
2026-05-06 01:27 60.30196 5.21531 161 ft 24 kts 350°
2026-05-06 01:27 60.30348 5.21480 166 ft 16 kts 351°
2026-05-06 01:27 60.30426 5.21553 170 ft 2 kts 65°
2026-05-06 01:27 60.30432 5.21579 171 ft 2 kts 65°
2026-05-06 01:28 60.30436 5.21608 171 ft 3 kts 72°
2026-05-06 01:28 60.30446 5.21684 172 ft 8 kts 83°
2026-05-06 01:28 60.30415 5.21774 172 ft 9 kts 158°
2026-05-06 01:28 60.30349 5.21800 170 ft 10 kts 170°
2026-05-06 01:29 60.30266 5.21828 165 ft 14 kts 171°
2026-05-06 01:29 60.30167 5.21861 163 ft 14 kts 171°
2026-05-06 01:29 60.30066 5.21894 159 ft 16 kts 171°
2026-05-06 01:29 60.29945 5.21936 154 ft 18 kts 171°
2026-05-06 01:30 60.29820 5.21977 149 ft 19 kts 170°
2026-05-06 01:30 60.29687 5.22022 147 ft 19 kts 170°
2026-05-06 01:30 60.29557 5.22065 151 ft 19 kts 170°
2026-05-06 01:30 60.29432 5.22107 156 ft 17 kts 170°
2026-05-06 01:31 60.29319 5.22146 160 ft 16 kts 170°
2026-05-06 01:31 60.29208 5.22182 162 ft 16 kts 171°
2026-05-06 01:31 60.29110 5.22216 162 ft 11 kts 170°
2026-05-06 01:31 60.29077 5.22306 164 ft 9 kts 101°
2026-05-06 01:32 60.29032 5.22365 165 ft 8 kts 167°
2026-05-06 01:32 60.28975 5.22388 165 ft 8 kts 173°
2026-05-06 01:32 60.28919 5.22402 166 ft 8 kts 172°
2026-05-06 01:32 60.28889 5.22431 167 ft 4 kts 115°
2026-05-06 01:33 60.28889 5.22491 170 ft 4 kts 84°
2026-05-06 01:33 60.28890 5.22511 171 ft 0 kts 84°
2026-05-06 01:33 60.28891 5.22521 171 ft 1 kts 83°
2026-05-06 01:33 60.28892 5.22544 172 ft 0 kts 83°